Temp
12 13 13 14 15 15 16 17 17 17 16 16 15 15 14 14 14 13 12 12 11 10
12 12 13 14 14 15 15 15 16 16 16 16 15 14 14 13 13 12 12 11 11 10
13 13 13 13 13 13 14 14 14 15 15 15 14 13 13 12 12 11 11 11 10 10
13 13 13 13 13 14 14 14 14 14 13 13 12 12 12 13 13 11 10 10 10 10
14 14 14 13 13 13 13 13 13 13 13 12 12 13 11 12 11 10 10 10 9 9
15 14 14 14 13 14 13 12 12 13 12 12 12 11 11 11 11 10 9 9 8 8
15 15 15 14 13 13 12 13 14 12 11 12 11 10 9 9 9 8 8 8 8 7
15 14 14 14 14 13 13 14 14 11 10 11 10 9 8 8 8 7 8 7 6 6
15 14 14 13 13 12 12 11 11 10 10 10 9 9 8 8 7 7 6 5 5 4
12 12 12 12 12 12 11 11 10 9 9 8 8 7 7 7 7 6 5 5 3 3
11 12 12 11 11 11 10 9 8 7 7 7 7 7 6 6 5 5 4 3 3 3
10 10 10 9 8 8 7 7 6 6 6 6 5 5 5 4 3 3 2 2 1 1
9 9 8 8 7 6 6 6 6 5 5 4 3 2 2 3 2 2 1 -0 -1 -1
8 7 7 6 6 6 5 4 3 2 1 1 1 0 0 -1 -1 -1 -2 -2 -2 -3
Height
775 776 779 780 782 783 785 787 791 793 796 799 800 802 805 808 811 814 818 818 822 825
769 770 773 773 776 778 782 784 785 786 788 791 793 795 798 801 803 807 810 813 813 819
763 766 769 771 772 773 775 778 779 781 783 784 786 788 791 794 798 802 804 807 810 813
758 761 763 764 765 767 771 772 773 776 778 778 779 776 785 786 789 793 797 801 805 808
749 753 755 755 758 763 765 764 765 768 771 767 769 774 775 780 782 786 790 794 797 799
741 743 744 748 751 753 757 763 757 755 762 761 767 769 770 773 775 779 783 786 790 795
731 731 735 741 745 748 749 753 749 756 759 758 759 763 767 770 773 776 779 782 786 790
722 726 731 735 737 739 741 742 743 746 749 752 754 758 762 766 769 772 774 780 784 789
716 721 724 728 732 735 736 738 740 741 743 747 749 751 757 760 764 769 776 780 783 786
713 717 720 723 727 730 733 735 737 739 740 742 746 751 754 758 762 766 769 777 782 784
712 715 718 721 724 727 729 732 734 737 739 741 745 749 755 756 761 768 773 778 781 784
713 716 718 721 724 727 729 732 734 738 739 744 748 750 757 760 763 767 772 776 780 783
713 716 719 723 727 729 731 734 737 740 744 747 751 756 760 762 770 769 772 777 778 782
718 720 723 725 728 730 733 736 740 743 748 752 754 759 763 765 769 774 776 778 778 779
Wind_Speed
41 37 37 37 36 36 37 41 41 39 39 39 37 37 36 37 38 38 34 28 23 28
39 39 37 38 36 39 42 42 40 40 41 42 39 38 37 39 38 35 33 32 30 28
38 40 40 34 38 39 40 41 40 41 41 42 41 38 36 36 35 34 33 33 31 29
38 38 37 37 38 41 39 42 43 41 39 40 37 34 35 37 37 35 38 33 34 32
39 36 36 40 39 37 39 42 39 37 36 31 38 41 39 37 37 39 39 36 36 31
37 37 39 39 37 40 38 27 29 23 35 37 41 40 38 41 41 41 40 37 32 27
38 41 42 37 33 33 30 28 30 38 38 37 38 37 37 36 35 36 35 32 25 21
37 33 33 34 36 34 35 41 35 34 32 36 36 35 34 33 32 31 30 23 17 17
30 29 30 31 29 29 31 30 26 27 33 36 32 33 35 34 29 22 15 14 12 11
23 23 22 22 24 28 26 23 25 29 30 28 29 26 27 24 21 20 19 17 17 15
14 14 16 18 21 20 21 23 23 21 20 22 19 22 20 17 17 15 14 16 12 10
14 15 15 16 16 16 18 17 17 19 19 20 17 16 15 15 19 21 16 11 7 4
9 11 13 13 12 12 14 16 16 17 16 17 18 14 15 16 15 13 11 7 4 3
6 6 8 10 12 15 18 20 20 21 19 18 19 16 12 10 9 7 6 5 3 1
Wind_Direction
220 224 228 227 230 237 242 245 245 246 247 246 244 241 232 230 231 231 228 215 215 218
223 223 226 230 235 239 241 244 247 247 244 241 239 238 231 228 227 228 222 218 217 213
225 227 230 234 236 236 240 244 244 245 241 238 235 231 228 225 225 223 217 211 216 215
228 230 232 234 237 239 238 242 242 243 239 237 231 227 225 222 222 220 216 211 212 221
228 230 231 234 234 235 233 236 236 238 242 241 233 225 223 221 220 215 210 218 214 217
227 224 227 229 231 235 234 226 232 249 245 235 232 227 224 226 221 214 213 213 214 217
225 224 226 228 227 223 215 217 236 242 239 234 228 227 223 217 216 210 213 214 207 217
226 227 226 228 230 228 229 218 231 227 232 231 224 223 218 216 213 208 207 202 203 216
217 219 222 226 219 210 221 224 232 230 224 221 218 218 217 211 197 195 196 191 187 180
207 205 201 207 214 220 223 228 232 219 211 205 203 200 195 194 189 181 176 189 180 179
191 189 197 205 206 212 221 213 202 196 187 186 180 173 174 163 167 178 169 171 173 190
179 185 191 196 199 199 189 179 169 165 161 154 146 155 165 168 160 156 153 159 163 213
173 179 182 190 182 164 165 154 155 144 143 146 137 144 154 156 158 143 145 159 177 223
147 160 174 161 161 158 151 140 132 127 126 130 136 134 139 135 149 153 155 163 167 260